Flag for U.S.A. Weather past 2 weeks in Dallas, Texas, U.S.A.

Now
64 °F

Low clouds.


Feels Like: 64 °F
Forecast: 67 / 85 °F
Wind: No wind

Location: Dallas Love Field

Current Time: May 26, 2015 at 1:26:16 AM

Latest Report: May 26, 2015 at 12:53 AM


Visibility: 10 mi

Pressure: 29.89 "Hg

Humidity: 94%

Dew point: 62 °F

Location of DallasLocation

Historic Weather in Dallas — Graph

°F

Dallas temperature yesterday

Maximum temperature yesterday: 79 °F (at 2:53 PM)
Minimum temperature yesterday: 63 °F (at 4:53 PM)
Average temperature yesterday: 70 °F

Past Weeks' High & Low Weather Summary

 TemperatureHumidityPressure
High90 °F (May 18, 3:53 PM)97% (May 17, 3:53 AM)30.25 "Hg (May 17, 3:53 AM)
Low56 °F (May 21, 6:53 AM)40% (May 18, 6:53 PM)29.71 "Hg (May 16, 6:53 PM)
Average72 °F78%29.99 "Hg
* Reported May 10 11:53 PM — May 25 11:53 PM, Dallas, Weather by CustomWeather, © 2015

Note: Actual official high and low records may vary slightly from our data, if they occured in-between our weather recording intervals... More about our weather records

Advertising

Dallas weather history for previous 24 hours

 ConditionsComfort  
Time TempWeatherWind HumidityBarometerVisibility
11:53 PM
Mon, May 25
64 °FLow clouds.3 mph94%29.88 "Hg10 mi
10:53 PM65 °FOvercast.3 mph91%29.88 "Hg10 mi
9:53 PM65 °FPartly cloudy.7 mph94%29.85 "Hg10 mi
8:53 PM64 °FPartly sunny.7 mph94%29.80 "Hg9 mi
7:53 PM64 °FPartly sunny.No wind94%29.80 "Hg10 mi
6:53 PM64 °FBroken clouds.3 mph90%29.78 "Hg10 mi
5:53 PM64 °FThunderstorms. Broken clouds.5 mph90%29.80 "Hg10 mi
4:53 PM63 °FThunderstorms. Fog.23 mph93%29.84 "Hg6 mi
4:03 PM65 °FThunderstorms. Fog.5 mph87%29.85 "Hg2 mi
3:53 PM64 °FThunderstorms. Fog.3 mph94%29.87 "Hg6 mi
3:02 PM79 °FThunderstorms. Mostly cloudy.10 mph72%29.85 "Hg10 mi
2:53 PM79 °FCloudy.8 mph72%29.82 "Hg10 mi
1:53 PM77 °FCloudy.12 mph79%29.79 "Hg10 mi
12:53 PM78 °FLight rain. Mostly cloudy.15 mph76%29.87 "Hg10 mi
11:53 AM78 °FCloudy.16 mph76%29.87 "Hg10 mi
10:53 AM75 °FMostly cloudy.15 mph85%29.89 "Hg9 mi
9:53 AM74 °FPartly sunny.16 mph88%29.89 "Hg10 mi
8:58 AM72 °FDrizzle. Cloudy.12 mph93%29.92 "Hg7 mi
7:53 AM71 °FDrizzle. Fog.8 mph93%29.89 "Hg2 mi
6:53 AM70 °FDrizzle. Fog.12 mph93%29.89 "Hg3 mi
5:53 AM71 °FDrizzle. Fog.10 mph90%29.87 "Hg3 mi
4:53 AM71 °FMostly cloudy.10 mph90%29.86 "Hg8 mi
3:53 AM71 °FOvercast.13 mph90%29.85 "Hg8 mi
2:53 AM71 °FPassing clouds.10 mph90%29.85 "Hg10 mi
1:53 AM72 °FPassing clouds.12 mph87%29.86 "Hg10 mi
Weather by CustomWeather, © 2015

See weather overviewHow to use our weather pages